User: anonymous   Login
Location: Pine Mountain Observatory
(43.7910°N, 120.9377°W)
Time: 23:52:24
(UTC-07:00)
Language:

Cosmos 1867 - Orbit

View from above orbital plane
View from above orbital plane
View from above satellite
View from above satellite

Ground track
Ground track

The orbit data is extracted from the following two-line orbital elements,

1 18187U 87060A   17174.66072026 -.00000049 +00000-0 +19463-4 0  9996
2 18187 065.0093 210.6892 0014314 262.3697 097.5761 14.31086204564690
Epoch (UTC): 23 June 2017 15:51:26
Eccentricity: 0.0014314
inclination: 65.0093°
perigee height: 778 km
apogee height: 798 km
right ascension of ascending node: 210.6892°
argument of perigee: 262.3697°
revolutions per day: 14.31086204
mean anomaly at epoch: 97.5761°
orbit number at epoch: 56469

The dashed part of the orbit path shows where the satellite is in the earth's shadow,  

DLR